EW3240 Weather Reports


time (UTC)temp
C
wind
direction
speed
KPH
gust
KPH
rain 1hr
cm
rain 24hr
cm
rain mn
cm
humidity
%
barometer
mb
20260906163737 23 112 8.0 14.5 0.00 0.00 0.00 74 1020.4
20260906163231 23 114 8.0 14.5 0.00 0.00 0.00 76 1020.4
20260906162725 23 93 8.0 14.5 0.00 0.00 0.00 77 1020.4
20260906162219 23 101 6.4 14.5 0.00 0.00 0.00 75 1020.3
20260906161713 23 93 6.4 16.1 0.00 0.00 0.00 74 1020.3
20260906161207 23 124 6.4 16.1 0.00 0.00 0.00 77 1020.3
20260906160701 23 88 8.0 14.5 0.00 0.00 0.00 73 1020.3
20260906160155 23 107 9.7 16.1 0.00 0.00 0.00 75 1020.4
20260906155649 23 113 9.7 16.1 0.00 0.00 0.00 76 1020.3
20260906155143 23 111 8.0 16.1 0.00 0.00 0.00 77 1020.3
20260906154637 23 102 6.4 16.1 0.00 0.00 0.00 75 1020.3
20260906153625 23 98 6.4 12.9 0.00 0.00 0.00 76 1020.4
20260906153119 23 90 6.4 12.9 0.00 0.00 0.00 75 1020.5
20260906152613 23 126 4.8 12.9 0.00 0.00 0.00 75 1020.4
20260906152107 23 105 4.8 12.9 0.00 0.00 0.00 75 1020.4
20260906151602 23 108 6.4 12.9 0.00 0.00 0.00 75 1020.3
20260906151055 22 113 4.8 12.9 0.00 0.00 0.00 76 1020.2
20260906150549 22 107 4.8 12.9 0.00 0.00 0.00 77 1020.2
20260906150043 22 109 6.4 12.9 0.00 0.00 0.00 77 1020.1
20260906145536 22 105 6.4 12.9 0.00 0.00 0.00 77 1020.2
20260906145030 22 90 4.8 12.9 0.00 0.00 0.00 77 1020.3
20260906144525 22 78 4.8 12.9 0.00 0.00 0.00 78 1020.2
20260906143513 22 117 3.2 11.3 0.00 0.00 0.00 77 1020.2
20260906143007 21 113 3.2 9.7 0.00 0.00 0.00 78 1020.2
20260906142501 21 88 4.8 11.3 0.00 0.00 0.00 78 1020.3
20260906141955 21 106 4.8 11.3 0.00 0.00 0.00 78 1020.2
20260906135932 21 119 4.8 11.3 0.00 0.00 0.00 79 1020.0
20260906134919 21 111 4.8 11.3 0.00 0.00 0.00 78 1020.0
20260906134413 21 123 3.2 11.3 0.00 0.00 0.00 79 1020.0
20260906133907 21 125 3.2 9.7 0.00 0.00 0.00 78 1019.9
20260906133401 21 70 4.8 8.0 0.00 0.00 0.00 79 1019.8
20260906132855 21 145 3.2 6.4 0.00 0.00 0.00 79 1019.8
20260906132349 21 96 3.2 6.4 0.00 0.00 0.00 79 1019.8
20260906131844 21 110 3.2 6.4 0.00 0.00 0.00 84 1020.0
20260906131337 20 68 1.6 4.8 0.00 0.00 0.00 86 1019.9
20260906130831 20 44 0.0 3.2 0.00 0.00 0.00 87 1020.0
20260906130328 19 44 0.0 3.2 0.00 0.00 0.00 88 1020.0
20260906125828 18 44 0.0 3.2 0.00 0.00 0.00 91 1019.9
20260906125328 18 44 1.6 3.2 0.00 0.00 0.00 92 1019.7
20260906124828 18 44 0.0 3.2 0.00 0.00 0.00 93 1019.6
20260906124326 17 348 0.0 1.6 0.00 0.00 0.00 93 1019.5
20260906123826 17 348 0.0 0.0 0.00 0.00 0.00 93 1019.5
20260906123327 17 348 0.0 0.0 0.00 0.00 0.00 93 1019.5
20260906122826 17 348 0.0 1.6 0.00 0.00 0.00 94 1019.4
20260906122325 17 348 0.0 1.6 0.00 0.00 0.00 94 1019.4
20260906120825 16 348 0.0 1.6 0.00 0.00 0.00 93 1019.3
20260906120324 16 348 0.0 0.0 0.00 0.00 0.00 93 1019.2
20260906115825 16 348 0.0 0.0 0.00 0.00 0.00 93 1019.1
20260906115323 16 348 0.0 0.0 0.00 0.00 0.00 93 1019.1
20260906114823 16 348 0.0 0.0 0.00 0.00 0.00 93 1019.0
20260906114324 16 348 0.0 0.0 0.00 0.00 0.00 93 1018.9
20260906113323 16 348 0.0 0.0 0.00 0.00 0.00 93 1018.8
20260906112825 16 348 0.0 0.0 0.00 0.00 0.00 93 1018.7
20260906112323 16 348 0.0 0.0 0.00 0.00 0.00 93 1018.7
20260906111324 16 348 0.0 0.0 0.00 0.00 0.00 93 1018.5
20260906110827 15 348 0.0 0.0 0.00 0.00 0.00 93 1018.5
20260906110324 16 348 0.0 0.0 0.00 0.00 0.00 93 1018.4
20260906105824 16 348 0.0 0.0 0.00 0.00 0.00 93 1018.4
20260906105321 15 348 0.0 0.0 0.00 0.00 0.00 93 1018.4
20260906104817 15 348 0.0 0.0 0.00 0.00 0.00 93 1018.4
20260906104317 15 348 0.0 0.0 0.00 0.00 0.00 93 1018.4
20260906103316 15 348 0.0 0.0 0.00 0.00 0.00 93 1018.3
20260906102813 15 348 0.0 0.0 0.00 0.00 0.00 93 1018.2
20260906102313 16 348 0.0 0.0 0.00 0.00 0.00 93 1018.3
20260906101811 16 348 0.0 0.0 0.00 0.00 0.00 93 1018.3
20260906100806 16 348 0.0 0.0 0.00 0.00 0.00 93 1018.4
20260906100309 16 348 0.0 1.6 0.00 0.00 0.00 93 1018.3
20260906095803 16 348 0.0 1.6 0.00 0.00 0.00 93 1018.3
20260906095258 16 348 0.0 0.0 0.00 0.00 0.00 93 1018.3
20260906094751 16 348 0.0 0.0 0.00 0.00 0.00 93 1018.3
20260906094245 16 348 0.0 0.0 0.00 0.00 0.00 93 1018.2
20260906093739 16 348 0.0 3.2 0.00 0.00 0.00 93 1018.2
20260906093233 16 348 0.0 3.2 0.00 0.00 0.00 92 1018.2
20260906092727 16 348 0.0 3.2 0.00 0.00 0.00 92 1018.2
20260906091714 16 348 0.0 0.0 0.00 0.00 0.00 92 1018.1
20260906091209 16 348 0.0 1.6 0.00 0.00 0.00 92 1018.0
20260906090703 16 348 0.0 1.6 0.00 0.00 0.00 92 1018.0
20260906090157 16 348 0.0 1.6 0.00 0.00 0.00 92 1017.9
20260906085145 16 348 0.0 0.0 0.00 0.00 0.00 92 1018.0
20260906084639 16 348 0.0 1.6 0.00 0.00 0.00 92 1018.1
20260906084133 16 348 0.0 1.6 0.00 0.00 0.00 92 1018.1
20260906083628 16 348 0.0 4.8 0.00 0.00 0.00 92 1018.1
20260906082615 17 348 0.0 3.2 0.00 0.00 0.00 92 1018.1
20260906082110 17 348 0.0 4.8 0.00 0.00 0.00 92 1018.2
20260906081603 17 348 1.6 4.8 0.00 0.00 0.00 92 1018.0
20260906080551 16 325 1.6 6.4 0.00 0.00 0.00 92 1017.9
20260906080045 16 298 1.6 6.4 0.00 0.00 0.00 92 1017.9
20260906075539 16 333 3.2 6.4 0.00 0.00 0.00 92 1017.8
20260906075032 17 317 3.2 6.4 0.00 0.00 0.00 92 1017.8
20260906074527 17 347 3.2 6.4 0.00 0.00 0.00 92 1017.8
20260906074021 17 337 4.8 8.0 0.00 0.00 0.00 92 1017.7
20260906073515 17 355 3.2 8.0 0.00 0.00 0.00 92 1017.7
20260906071957 17 322 3.2 6.4 0.00 0.00 0.00 92 1017.5
20260906071451 17 346 3.2 6.4 0.00 0.00 0.00 92 1017.5
20260906070945 17 329 3.2 4.8 0.00 0.00 0.00 92 1017.5
20260906065933 17 351 1.6 4.8 0.00 0.00 0.00 92 1017.5
20260906064415 17 351 3.2 6.4 0.00 0.00 0.00 91 1017.4
20260906063403 17 341 1.6 4.8 0.00 0.00 0.00 91 1017.4
20260906062857 17 341 1.6 4.8 0.00 0.00 0.00 91 1017.4
20260906062352 17 355 1.6 4.8 0.00 0.00 0.00 91 1017.3
20260906061845 17 350 3.2 6.4 0.00 0.00 0.00 91 1017.4
20260906061340 17 350 3.2 6.4 0.00 0.00 0.00 91 1017.4
20260906060833 17 350 3.2 6.4 0.00 0.00 0.00 91 1017.4
20260906060327 17 344 3.2 4.8 0.00 0.00 0.00 91 1017.4
20260906055314 17 0 1.6 3.2 0.00 0.00 0.00 90 1017.3
20260906054809 17 0 0.0 3.2 0.00 0.00 0.00 90 1017.3
20260906054303 17 0 0.0 3.2 0.00 0.00 0.00 90 1017.2
20260906053251 17 0 3.2 4.8 0.00 0.00 0.00 90 1017.1
20260906052748 17 355 3.2 6.4 0.00 0.00 0.00 90 1017.1
20260906052249 17 355 1.6 6.4 0.00 0.00 0.00 90 1017.1
20260906051245 17 355 3.2 4.8 0.00 0.00 0.00 90 1017.2
20260906050743 17 355 1.6 4.8 0.00 0.00 0.00 90 1017.2
20260906050243 17 0 1.6 4.8 0.00 0.00 0.00 90 1017.3
20260906045743 17 344 3.2 8.0 0.00 0.00 0.00 90 1017.3
20260906045242 17 344 3.2 8.0 0.00 0.00 0.00 90 1017.3
20260906044244 17 345 3.2 6.4 0.00 0.00 0.00 90 1017.3
20260906043744 17 345 4.8 6.4 0.00 0.00 0.00 90 1017.2
20260906043240 17 347 4.8 9.7 0.00 0.00 0.00 90 1017.3
20260906042741 17 333 3.2 9.7 0.00 0.00 0.00 90 1017.3
20260906042241 17 346 3.2 8.0 0.00 0.00 0.00 90 1017.2
20260906041743 17 355 3.2 6.4 0.00 0.00 0.00 90 1017.1
20260906041238 17 346 3.2 8.0 0.00 0.00 0.00 90 1017.1
20260906040237 17 348 4.8 8.0 0.00 0.00 0.00 91 1017.0
20260906035737 17 0 3.2 6.4 0.00 0.00 0.00 91 1017.0
20260906035238 17 348 3.2 6.4 0.00 0.00 0.00 91 1017.1
20260906034737 17 348 3.2 4.8 0.00 0.00 0.00 91 1017.0
20260906034238 17 348 3.2 4.8 0.00 0.00 0.00 91 1017.0
20260906033737 17 348 3.2 4.8 0.00 0.00 0.00 91 1017.0
20260906033238 17 348 1.6 4.8 0.00 0.00 0.00 91 1017.0
20260906031732 17 348 3.2 6.4 0.00 0.00 0.00 90 1016.9
20260906031234 17 348 3.2 6.4 0.00 0.00 0.00 89 1016.9
20260906030734 17 348 3.2 6.4 0.00 0.00 0.00 89 1016.9
20260906030232 18 342 1.6 6.4 0.00 0.00 0.00 89 1017.0
20260906025734 18 355 3.2 6.4 0.00 0.00 0.00 88 1017.0
20260906025232 18 355 3.2 6.4 0.00 0.00 0.00 89 1016.9
20260906024728 17 355 3.2 6.4 0.00 0.00 0.00 89 1016.9
20260906024229 17 340 3.2 4.8 0.00 0.00 0.00 89 1017.0
20260906023728 17 24 3.2 6.4 0.00 0.00 0.00 90 1017.0
20260906023223 17 349 3.2 6.4 0.00 0.00 0.00 90 1016.9
20260906022211 17 346 1.6 6.4 0.00 0.00 0.00 89 1016.9
20260906021704 17 5 1.6 4.8 0.00 0.00 0.00 89 1016.9
20260906021157 18 5 1.6 4.8 0.00 0.00 0.00 89 1016.9
20260906020651 18 335 3.2 4.8 0.00 0.00 0.00 89 1016.9
20260906020145 18 335 3.2 6.4 0.00 0.00 0.00 90 1017.0
20260906015639 18 351 3.2 6.4 0.00 0.00 0.00 90 1017.0
20260906015133 18 331 3.2 6.4 0.00 0.00 0.00 90 1017.0
20260906014627 18 330 3.2 6.4 0.00 0.00 0.00 89 1016.9
20260906013615 18 355 1.6 4.8 0.00 0.00 0.00 88 1016.7
20260906013109 18 355 1.6 4.8 0.00 0.00 0.00 88 1016.6
20260906012057 19 14 1.6 4.8 0.00 0.00 0.00 87 1016.6
20260906011551 19 0 3.2 6.4 0.00 0.00 0.00 87 1016.6
20260906011045 19 28 1.6 6.4 0.00 0.00 0.00 86 1016.6
20260906005527 20 346 1.6 9.7 0.00 0.00 0.00 86 1016.5
20260906005021 20 27 3.2 9.7 0.00 0.00 0.00 85 1016.4
20260906004515 20 336 3.2 8.0 0.00 0.00 0.00 85 1016.5
20260906004009 20 5 3.2 8.0 0.00 0.00 0.00 84 1016.4
20260906003503 20 12 1.6 6.4 0.00 0.00 0.00 84 1016.5
20260906002957 20 69 3.2 12.9 0.00 0.00 0.00 84 1016.4
20260906001945 20 38 3.2 9.7 0.00 0.00 0.00 85 1016.5
20260906001438 20 42 4.8 12.9 0.00 0.00 0.00 85 1016.5
20260906000427 20 22 4.8 16.1 0.00 0.00 0.00 84 1016.4
20260905235921 20 56 4.8 12.9 0.00 0.00 0.00 84 1016.5
20260905235415 20 31 4.8 12.9 0.00 0.00 0.00 84 1016.6
20260905234909 20 21 4.8 12.9 0.00 0.00 0.00 83 1016.6
20260905234404 20 24 3.2 9.7 0.00 0.00 0.00 83 1016.7
20260905233857 21 11 4.8 11.3 0.00 0.00 0.00 82 1016.6
20260905233351 21 344 4.8 16.1 0.00 0.00 0.00 82 1016.6
20260905232845 21 56 6.4 16.1 0.00 0.00 0.00 81 1016.5
20260905232338 21 342 4.8 14.5 0.00 0.00 0.00 81 1016.5
20260905231832 21 314 4.8 12.9 0.00 0.00 0.00 81 1016.6
20260905231327 21 51 4.8 12.9 0.00 0.00 0.00 80 1016.6
20260905230821 21 65 4.8 14.5 0.00 0.00 0.00 80 1016.5
20260905225809 21 42 6.4 16.1 0.00 0.00 0.00 80 1016.4
20260905225305 21 61 6.4 16.1 0.00 0.00 0.00 80 1016.4
20260905224757 21 50 6.4 17.7 0.00 0.00 0.00 80 1016.4
20260905224251 21 55 6.4 17.7 0.00 0.00 0.00 80 1016.4
20260905223745 22 9 6.4 17.7 0.00 0.00 0.00 80 1016.3
20260905223239 22 11 6.4 17.7 0.00 0.00 0.00 80 1016.3
20260905222227 21 62 4.8 19.3 0.00 0.00 0.00 80 1016.3
20260905221721 22 11 6.4 17.7 0.00 0.00 0.00 80 1016.3
20260905221215 22 42 6.4 17.7 0.00 0.00 0.00 80 1016.3
20260905220709 22 44 6.4 19.3 0.00 0.00 0.00 80 1016.3
20260905220203 22 14 6.4 19.3 0.00 0.00 0.00 80 1016.3
20260905215657 22 55 4.8 12.9 0.00 0.00 0.00 80 1016.3
20260905215154 22 70 6.4 14.5 0.00 0.00 0.00 80 1016.3
20260905214654 22 54 6.4 14.5 0.00 0.00 0.00 81 1016.4
20260905214153 22 83 6.4 17.7 0.00 0.00 0.00 80 1016.5
20260905213654 22 46 6.4 17.7 0.00 0.00 0.00 80 1016.4
20260905213154 22 47 4.8 12.9 0.00 0.00 0.00 80 1016.4
20260905212654 22 68 4.8 12.9 0.00 0.00 0.00 81 1016.3
20260905211152 22 42 4.8 12.9 0.00 0.00 0.00 82 1016.3
20260905210652 22 34 4.8 12.9 0.00 0.00 0.00 82 1016.3
20260905210152 22 34 4.8 11.3 0.00 0.00 0.00 82 1016.3
20260905205652 22 68 4.8 14.5 0.00 0.00 0.00 82 1016.3
20260905205151 22 34 4.8 16.1 0.00 0.00 0.00 83 1016.3
20260905204651 22 53 4.8 16.1 0.00 0.00 0.00 83 1016.3
20260905204153 21 35 6.4 16.1 0.00 0.00 0.00 83 1016.4
20260905203652 22 40 6.4 16.1 0.00 0.00 0.00 82 1016.3
20260905203152 22 90 4.8 16.1 0.00 0.00 0.00 82 1016.2
20260905202656 22 58 4.8 16.1 0.00 0.00 0.00 83 1016.2
20260905202153 21 64 6.4 19.3 0.00 0.00 0.00 83 1016.3
20260905201653 21 72 4.8 19.3 0.00 0.00 0.00 83 1016.3
20260905201152 21 34 4.8 12.9 0.00 0.00 0.00 85 1016.3
20260905200652 21 38 6.4 12.9 0.00 0.00 0.00 85 1016.2
20260905200153 21 47 6.4 14.5 0.00 0.00 0.00 85 1016.3
20260905195653 21 43 6.4 14.5 0.00 0.00 0.00 85 1016.3
20260905195153 21 19 6.4 16.1 0.00 0.00 0.00 85 1016.3
20260905194653 21 30 4.8 16.1 0.00 0.00 0.00 85 1016.4
20260905194153 21 348 4.8 12.9 0.00 0.00 0.00 85 1016.4
20260905193652 21 20 6.4 12.9 0.00 0.00 0.00 85 1016.4
20260905193152 21 52 4.8 16.1 0.00 0.00 0.00 85 1016.4
20260905192653 21 29 4.8 16.1 0.00 0.00 0.00 85 1016.4
20260905192152 21 34 4.8 14.5 0.00 0.00 0.00 85 1016.3
20260905191651 21 24 4.8 14.5 0.00 0.00 0.00 85 1016.3
20260905191152 21 76 4.8 14.5 0.00 0.00 0.00 85 1016.4
20260905190646 21 36 4.8 16.1 0.00 0.00 0.00 85 1016.3
20260905190140 21 89 4.8 16.1 0.00 0.00 0.00 86 1016.4
20260905185641 21 78 6.4 16.1 0.00 0.00 0.00 86 1016.4
20260905185141 21 327 4.8 16.1 0.00 0.00 0.00 86 1016.4
20260905184640 22 41 4.8 16.1 0.00 0.00 0.00 85 1016.4
20260905184137 22 63 4.8 14.5 0.00 0.00 0.00 85 1016.5
20260905183638 22 0 4.8 14.5 0.00 0.00 0.00 85 1016.5
20260905183137 21 355 4.8 17.7 0.00 0.00 0.00 85 1016.4
20260905182638 21 67 6.4 17.7 0.00 0.00 0.00 85 1016.5
20260905182135 21 342 6.4 17.7 0.00 0.00 0.00 85 1016.3
20260905181635 21 74 8.0 19.3 0.00 0.00 0.00 85 1016.4
20260905181136 21 17 6.4 19.3 0.00 0.00 0.00 85 1016.4
20260905175632 22 101 6.4 14.5 0.00 0.00 0.00 85 1016.3
20260905174632 21 26 4.8 14.5 0.00 0.00 0.00 86 1016.3
20260905174132 21 50 4.8 14.5 0.00 0.00 0.00 86 1016.3
20260905173631 21 349 6.4 16.1 0.00 0.00 0.00 86 1016.2
20260905173132 21 50 4.8 16.1 0.00 0.00 0.00 86 1016.2
20260905172626 21 355 4.8 14.5 0.00 0.00 0.00 86 1016.2
20260905172120 22 19 4.8 16.1 0.00 0.00 0.00 87 1016.3
20260905171614 21 35 4.8 16.1 0.00 0.00 0.00 87 1016.3
20260905171108 21 17 6.4 14.5 0.00 0.00 0.00 87 1016.3
20260905170602 21 44 4.8 14.5 0.00 0.00 0.00 87 1016.3
20260905165551 21 73 3.2 11.3 0.00 0.00 0.00 87 1016.3
20260905164538 21 41 3.2 9.7 0.00 0.00 0.00 87 1016.3
20260905164032 22 44 3.2 9.7 0.00 0.00 0.00 87 1016.3